{"data":{"norad_id":63851,"intl_designator":"2025-093R","name":"STARLINK-33776","alt_names":[],"object_type":"PAYLOAD","status":"ACTIVE","operator":null,"country":"US","launch_date":"2025-05-07","launch_site_code":"AFETR","launch_vehicle":null,"mission":null,"orbit_class":"UNKNOWN","rcs_meters":null,"size_class":null,"mass_kg":null,"dimensions":null,"purposes":["comms"],"wikipedia_slug":null,"has_3d_model":false,"image_url":null,"decayed_at":null,"tle_current":{"epoch":"2026-09-20T03:26:57.335424Z","epoch_age_seconds":180701,"freshness":"STALE","line1":"1 63851U 25093R   26263.14371916  .00038646  00000+0  14037-2 0  9996","line2":"2 63851  43.0001  59.5326 0001231 251.0773 108.9945 15.27647036 77703","mean_motion":15.27647036,"eccentricity":0.0001231,"inclination_deg":43.0001,"raan_deg":59.5326,"arg_perigee_deg":251.0773,"mean_anomaly_deg":108.9945,"bstar":0.0014037,"rev_number":7770,"period_min":94.262612112972,"perigee_km":482.00378618047,"apogee_km":483.69296077943,"semimajor_km":6860.9853734799,"source":"CELESTRAK","updated_at":"2026-09-21T09:00:35.134203Z"}}}